Meteo pe oră la Dachnoe

Astăzi, 11 Aprilie, Duminică

Timp Temperatura Precipitaţii Vânt Presiune Umiditate
00:00 +7°C° 0 mm 2 m/s 744 mmHg 75%
01:00 +7°C° 0 mm 3 m/s 744 mmHg 77%
02:00 +7°C° 0 mm 2 m/s 744 mmHg 79%
03:00 +7°C° 0 mm 3 m/s 745 mmHg 80%
04:00 +7°C° 0 mm 3 m/s 745 mmHg 80%
05:00 +5°C° 0 mm 3 m/s 745 mmHg 81%
06:00 +7°C° 0 mm 3 m/s 745 mmHg 77%
07:00 +7°C° 0 mm 4 m/s 746 mmHg 74%
08:00 +8°C° 0 mm 4 m/s 746 mmHg 70%
09:00 +9°C° 0 mm 5 m/s 746 mmHg 65%
10:00 +12°C° 0 mm 5 m/s 747 mmHg 59%
11:00 +13°C° 0 mm 5 m/s 747 mmHg 54%
12:00 +14°C° 0 mm 6 m/s 747 mmHg 51%
13:00 +15°C° 0 mm 6 m/s 747 mmHg 49%
14:00 +15°C° 0 mm 6 m/s 747 mmHg 46%
15:00 +15°C° 0 mm 5 m/s 747 mmHg 49%
16:00 +15°C° 0 mm 4 m/s 747 mmHg 51%
17:00 +15°C° 0 mm 4 m/s 747 mmHg 54%
18:00 +13°C° 0 mm 4 m/s 747 mmHg 58%
19:00 +12°C° 0 mm 3 m/s 747 mmHg 63%
20:00 +10°C° 0 mm 3 m/s 748 mmHg 67%
21:00 +9°C° 0 mm 3 m/s 748 mmHg 68%
22:00 +9°C° 0 mm 3 m/s 748 mmHg 68%
23:00 +8°C° 0 mm 3 m/s 748 mmHg 69%

Mâine, 12 Aprilie, Luni

Timp Temperatura Precipitaţii Vânt Presiune Umiditate
00:00 +7°C° 0 mm 3 m/s 748 mmHg 70%
01:00 +7°C° 0 mm 3 m/s 748 mmHg 72%
02:00 +5°C° 0 mm 3 m/s 748 mmHg 73%
03:00 +5°C° 0 mm 3 m/s 748 mmHg 74%
04:00 +4°C° 0 mm 3 m/s 748 mmHg 74%
05:00 +4°C° 0 mm 3 m/s 748 mmHg 75%
06:00 +5°C° 0 mm 4 m/s 748 mmHg 71%
07:00 +6°C° 0 mm 4 m/s 748 mmHg 67%
08:00 +7°C° 0 mm 4 m/s 748 mmHg 63%
09:00 +9°C° 0 mm 5 m/s 748 mmHg 57%
10:00 +10°C° 0 mm 5 m/s 748 mmHg 51%
11:00 +13°C° 0 mm 6 m/s 747 mmHg 46%
12:00 +14°C° 0 mm 6 m/s 747 mmHg 43%
13:00 +14°C° 0 mm 5 m/s 746 mmHg 40%
14:00 +15°C° 0 mm 5 m/s 746 mmHg 37%
15:00 +14°C° 0 mm 5 m/s 746 mmHg 39%
16:00 +14°C° 0 mm 4 m/s 745 mmHg 41%
17:00 +14°C° 0 mm 4 m/s 745 mmHg 43%
18:00 +13°C° 0 mm 3 m/s 745 mmHg 48%
19:00 +11°C° 0 mm 3 m/s 745 mmHg 53%
20:00 +10°C° 0 mm 3 m/s 745 mmHg 58%
21:00 +9°C° 0 mm 3 m/s 745 mmHg 61%
22:00 +8°C° 0 mm 3 m/s 745 mmHg 63%
23:00 +8°C° 0 mm 3 m/s 745 mmHg 66%

Poimâine, 13 Aprilie, Marţi

Timp Temperatura Precipitaţii Vânt Presiune Umiditate
00:00 +7°C° 0 mm 3 m/s 745 mmHg 69%
01:00 +7°C° 0 mm 3 m/s 744 mmHg 73%
02:00 +5°C° 0 mm 3 m/s 744 mmHg 76%
03:00 +5°C° 0 mm 3 m/s 744 mmHg 78%
04:00 +5°C° 0 mm 2 m/s 744 mmHg 79%
05:00 +5°C° 0 mm 2 m/s 744 mmHg 81%
06:00 +7°C° 0 mm 2 m/s 744 mmHg 76%
07:00 +8°C° 0 mm 2 m/s 744 mmHg 71%
08:00 +9°C° 0 mm 3 m/s 744 mmHg 66%
09:00 +12°C° 0 mm 2 m/s 744 mmHg 60%
10:00 +14°C° 0 mm 2 m/s 744 mmHg 54%
11:00 +15°C° 0 mm 2 m/s 744 mmHg 48%
12:00 +16°C° 0 mm 2 m/s 744 mmHg 48%
13:00 +16°C° 0 mm 2 m/s 744 mmHg 48%
14:00 +16°C° 0 mm 1 m/s 744 mmHg 48%
15:00 +15°C° 0 mm 2 m/s 743 mmHg 55%
16:00 +14°C° 0 mm 2 m/s 743 mmHg 62%
17:00 +12°C° 0 mm 3 m/s 743 mmHg 69%
18:00 +11°C° 0.3 mm 4 m/s 743 mmHg 75%
19:00 +10°C° 0.3 mm 4 m/s 743 mmHg 81%
20:00 +7°C° 0.3 mm 5 m/s 743 mmHg 87%
21:00 +7°C° 0.4 mm 5 m/s 743 mmHg 88%
22:00 +6°C° 0.4 mm 5 m/s 743 mmHg 90%
23:00 +6°C° 0.4 mm 5 m/s 742 mmHg 91%

14 Aprilie, Miercuri

Timp Temperatura Precipitaţii Vânt Presiune Umiditate
00:00 +6°C° 0.7 mm 5 m/s 742 mmHg 92%
01:00 +6°C° 0.7 mm 4 m/s 742 mmHg 94%
02:00 +6°C° 0.7 mm 4 m/s 741 mmHg 95%
03:00 +6°C° 0.3 mm 4 m/s 741 mmHg 95%
04:00 +6°C° 0.3 mm 4 m/s 741 mmHg 96%
05:00 +6°C° 0.3 mm 4 m/s 741 mmHg 96%
06:00 +6°C° 0.5 mm 4 m/s 741 mmHg 96%
07:00 +6°C° 0.5 mm 4 m/s 741 mmHg 96%
08:00 +6°C° 0.5 mm 4 m/s 741 mmHg 96%
09:00 +6°C° 0.4 mm 4 m/s 741 mmHg 95%
10:00 +6°C° 0.4 mm 4 m/s 741 mmHg 94%
11:00 +6°C° 0.4 mm 4 m/s 741 mmHg 92%
12:00 +8°C° 0.2 mm 3 m/s 741 mmHg 90%
13:00 +9°C° 0.2 mm 3 m/s 741 mmHg 87%
14:00 +9°C° 0.2 mm 3 m/s 741 mmHg 84%
15:00 +9°C° 0.1 mm 3 m/s 741 mmHg 84%
16:00 +9°C° 0.1 mm 3 m/s 740 mmHg 85%
17:00 +9°C° 0.1 mm 3 m/s 740 mmHg 85%
18:00 +9°C° 0.1 mm 3 m/s 741 mmHg 88%
19:00 +7°C° 0.1 mm 4 m/s 741 mmHg 90%
20:00 +6°C° 0.1 mm 4 m/s 741 mmHg 93%
21:00 +6°C° 0 mm 4 m/s 741 mmHg 94%
22:00 +6°C° 0 mm 4 m/s 741 mmHg 95%
23:00 +6°C° 0 mm 4 m/s 741 mmHg 96%

15 Aprilie, Joi

Timp Temperatura Precipitaţii Vânt Presiune Umiditate
00:00 +5°C° 0.2 mm 4 m/s 741 mmHg 96%
01:00 +5°C° 0.2 mm 4 m/s 741 mmHg 96%
02:00 +3°C° 0.2 mm 5 m/s 740 mmHg 96%
03:00 +4°C° 1.3 mm 4 m/s 740 mmHg 96%
04:00 +4°C° 1.3 mm 4 m/s 740 mmHg 95%
05:00 +3°C° 1.3 mm 4 m/s 740 mmHg 95%
06:00 +3°C° 1.4 mm 4 m/s 740 mmHg 95%
07:00 +3°C° 1.4 mm 4 m/s 741 mmHg 94%
08:00 +3°C° 1.4 mm 4 m/s 741 mmHg 94%
09:00 +3°C° 0.1 mm 4 m/s 741 mmHg 94%
10:00 +3°C° 0.1 mm 4 m/s 741 mmHg 94%
11:00 +3°C° 0.1 mm 4 m/s 741 mmHg 94%
12:00 +3°C° 0 mm 4 m/s 741 mmHg 94%
13:00 +3°C° 0 mm 4 m/s 741 mmHg 94%
14:00 +3°C° 0 mm 4 m/s 741 mmHg 94%
15:00 +3°C° 0 mm 4 m/s 741 mmHg 94%
16:00 +3°C° 0 mm 4 m/s 741 mmHg 95%
17:00 +3°C° 0 mm 4 m/s 741 mmHg 95%
18:00 +3°C° 0.2 mm 4 m/s 742 mmHg 95%
19:00 +4°C° 0.2 mm 4 m/s 742 mmHg 95%
20:00 +4°C° 0.2 mm 4 m/s 742 mmHg 96%
21:00 +4°C° 0.1 mm 4 m/s 742 mmHg 96%
22:00 +3°C° 0.1 mm 5 m/s 742 mmHg 95%
23:00 +3°C° 0.1 mm 5 m/s 742 mmHg 95%

16 Aprilie, Vineri

Timp Temperatura Precipitaţii Vânt Presiune Umiditate
00:00 +3°C° 0 mm 5 m/s 742 mmHg 95%
01:00 +2°C° 0 mm 6 m/s 743 mmHg 95%
02:00 +2°C° 0 mm 6 m/s 743 mmHg 95%
03:00 +3°C° 0 mm 6 m/s 743 mmHg 95%
04:00 +3°C° 0 mm 6 m/s 743 mmHg 94%
05:00 +3°C° 0 mm 6 m/s 743 mmHg 94%
06:00 +3°C° 0 mm 7 m/s 743 mmHg 93%
07:00 +3°C° 0 mm 7 m/s 744 mmHg 93%
08:00 +3°C° 0 mm 7 m/s 744 mmHg 92%
09:00 +3°C° 0.1 mm 7 m/s 745 mmHg 91%
10:00 +3°C° 0.1 mm 7 m/s 745 mmHg 90%
11:00 +4°C° 0.1 mm 7 m/s 745 mmHg 89%
12:00 +4°C° 0 mm 7 m/s 746 mmHg 88%
13:00 +4°C° 0 mm 7 m/s 746 mmHg 86%
14:00 +4°C° 0 mm 8 m/s 747 mmHg 85%
15:00 +4°C° 0 mm 8 m/s 747 mmHg 82%
16:00 +4°C° 0 mm 8 m/s 747 mmHg 79%
17:00 +4°C° 0 mm 7 m/s 748 mmHg 77%
18:00 +4°C° 0 mm 7 m/s 748 mmHg 74%
19:00 +5°C° 0 mm 7 m/s 748 mmHg 70%
20:00 +5°C° 0 mm 7 m/s 749 mmHg 67%
21:00 +4°C° 0 mm 7 m/s 749 mmHg 67%
22:00 +4°C° 0 mm 7 m/s 749 mmHg 66%
23:00 +4°C° 0 mm 7 m/s 750 mmHg 65%
Arată mai mult

Formular de consimțământ

Meteoprog și furnizorii noștri de servicii pot stoca și accesa date personale, precum cookies, identificatori de dispozitiv sau alte tehnologii similare pe dispozitivul dumneavoastră și procesa astfel de date pentru a personaliza conținutul și reclamele, dar și pentru a oferi caracteristici de social media și pentru a analiza traficul.

  • Stocarea și/sau accesarea informațiilor pe dispozitivul dumneavoastră

    Cookies, identificatori de dispozitiv sau alte informații pot fi stocate sau accesate pe dispozitiv în scopurile indicate mai sus.

  • Reclame și conținut personalizat, evaluarea reclamelor și a conținutului, informații despre audiențe și dezvoltarea produselor

    Reclamele și conținutul pot fi personalizate pe baza unui profil. Pot fi adăugate date suplimentare pentru a personaliza mai bine reclamele și conținutul. Performanța reclamelor și conținutului poate fi măsurată. Pot fi obținute informații despre utilizatorii care au văzut reclamele și conținutul. Aceste date pot fi utilizate pentru a dezvolta sau îmbunătăți experiența utilizatorilor, sistemele și software-ul.

Dând clic pe ‘Sunt de acord’, permiteți utilizarea cookie-urilor menționate, a identificatorilor de dispozitiv, balizelor web sau altor tehnologii similare. Setările pot fi modificate din browser-ul dispozitivului dumneavoastră.

În anumite scopuri, interesele legitime pot prima asupra consimțământului. Puteți citi mai multe informații în acest sens în Politica privind Confidențialitatea Datelor și Cookie.